Вернуться в каталог

NOAA 16 DEB

АктивенPO
NORAD 42367·DEBRIS·🇺🇸 United States

Запущен Sep 21, 2000 с Vandenberg Space Force Base

Loading…

Ближайшие Пролёты (ближайшие 24 часа)

TLE

СвежийSource: Space-Track

Эпоха: Sep 13, 2026, 08:15 UTC

1 42367U 00055RK  26256.34392004  .00010786  00000-0  24207-2 0  9997
2 42367  98.8882  30.1364 0017174 177.6103 182.5178 14.56649573540280

Отслеживайте NOAA 16 DEB в реальном времени с AllMySat

Download on the App Store